Stündliche Wetter Absalyamovo

Heute, 18 Juni, Freitag

Zeit Temperatur Niederschläge Wind Luftdruck Luftfeuchtigkeit
00:00 +12°C° 0 mm 3 m/S 761 mmHg 73%
01:00 +11°C° 0 mm 3 m/S 762 mmHg 74%
02:00 +10°C° 0 mm 3 m/S 762 mmHg 75%
03:00 +10°C° 0 mm 3 m/S 763 mmHg 76%
04:00 +11°C° 0 mm 3 m/S 763 mmHg 73%
05:00 +12°C° 0 mm 3 m/S 763 mmHg 70%
06:00 +13°C° 0 mm 4 m/S 764 mmHg 68%
07:00 +14°C° 0 mm 4 m/S 764 mmHg 63%
08:00 +15°C° 0 mm 5 m/S 764 mmHg 59%
09:00 +16°C° 0 mm 5 m/S 764 mmHg 55%
10:00 +17°C° 0 mm 5 m/S 764 mmHg 52%
11:00 +19°C° 0 mm 5 m/S 764 mmHg 49%
12:00 +20°C° 0 mm 5 m/S 764 mmHg 47%
13:00 +20°C° 0 mm 4 m/S 764 mmHg 46%
14:00 +21°C° 0 mm 4 m/S 764 mmHg 45%
15:00 +21°C° 0 mm 4 m/S 764 mmHg 44%
16:00 +21°C° 0 mm 3 m/S 764 mmHg 49%
17:00 +20°C° 0 mm 2 m/S 764 mmHg 54%
18:00 +20°C° 0 mm 2 m/S 764 mmHg 59%
19:00 +19°C° 0 mm 1 m/S 764 mmHg 61%
20:00 +18°C° 0 mm 1 m/S 765 mmHg 63%
21:00 +14°C° 0 mm 0 m/S 765 mmHg 65%
22:00 +15°C° 0 mm 1 m/S 765 mmHg 66%
23:00 +14°C° 0 mm 1 m/S 765 mmHg 66%

Morgen, 19 Juni, Samstag

Zeit Temperatur Niederschläge Wind Luftdruck Luftfeuchtigkeit
00:00 +14°C° 0 mm 2 m/S 765 mmHg 67%
01:00 +14°C° 0 mm 2 m/S 765 mmHg 69%
02:00 +13°C° 0 mm 2 m/S 765 mmHg 70%
03:00 +12°C° 0 mm 3 m/S 765 mmHg 72%
04:00 +13°C° 0 mm 3 m/S 765 mmHg 72%
05:00 +14°C° 0 mm 3 m/S 765 mmHg 72%
06:00 +15°C° 0 mm 4 m/S 765 mmHg 72%
07:00 +17°C° 0 mm 5 m/S 764 mmHg 69%
08:00 +20°C° 0 mm 5 m/S 764 mmHg 66%
09:00 +22°C° 0 mm 6 m/S 763 mmHg 63%
10:00 +23°C° 0 mm 6 m/S 763 mmHg 61%
11:00 +24°C° 0 mm 7 m/S 763 mmHg 59%
12:00 +26°C° 0 mm 7 m/S 762 mmHg 58%
13:00 +26°C° 0 mm 7 m/S 762 mmHg 59%
14:00 +27°C° 0 mm 7 m/S 762 mmHg 59%
15:00 +27°C° 0 mm 7 m/S 761 mmHg 60%
16:00 +27°C° 0 mm 7 m/S 761 mmHg 64%
17:00 +26°C° 0 mm 7 m/S 761 mmHg 67%
18:00 +26°C° 0 mm 7 m/S 760 mmHg 71%
19:00 +23°C° 0 mm 6 m/S 760 mmHg 74%
20:00 +22°C° 0 mm 6 m/S 760 mmHg 78%
21:00 +21°C° 0 mm 5 m/S 760 mmHg 81%
22:00 +20°C° 0 mm 5 m/S 760 mmHg 82%
23:00 +20°C° 0 mm 4 m/S 760 mmHg 84%

übermorgen, 20 Juni, Sonntag

Zeit Temperatur Niederschläge Wind Luftdruck Luftfeuchtigkeit
00:00 +19°C° 0 mm 4 m/S 760 mmHg 85%
01:00 +19°C° 0 mm 4 m/S 760 mmHg 87%
02:00 +18°C° 0 mm 4 m/S 760 mmHg 88%
03:00 +18°C° 0 mm 4 m/S 760 mmHg 90%
04:00 +19°C° 0 mm 4 m/S 761 mmHg 87%
05:00 +20°C° 0 mm 4 m/S 761 mmHg 84%
06:00 +21°C° 0 mm 4 m/S 761 mmHg 81%
07:00 +23°C° 0 mm 4 m/S 761 mmHg 75%
08:00 +25°C° 0 mm 4 m/S 761 mmHg 70%
09:00 +27°C° 0 mm 4 m/S 760 mmHg 64%
10:00 +28°C° 0 mm 4 m/S 760 mmHg 59%
11:00 +29°C° 0 mm 5 m/S 760 mmHg 54%
12:00 +30°C° 0 mm 5 m/S 760 mmHg 49%
13:00 +30°C° 0 mm 5 m/S 760 mmHg 49%
14:00 +32°C° 0 mm 4 m/S 760 mmHg 48%
15:00 +32°C° 0 mm 4 m/S 760 mmHg 47%
16:00 +30°C° 0 mm 4 m/S 760 mmHg 53%
17:00 +29°C° 0 mm 3 m/S 760 mmHg 60%
18:00 +28°C° 0 mm 3 m/S 760 mmHg 66%
19:00 +26°C° 0 mm 2 m/S 761 mmHg 70%
20:00 +25°C° 0 mm 2 m/S 761 mmHg 75%
21:00 +23°C° 0 mm 2 m/S 761 mmHg 79%
22:00 +21°C° 0 mm 2 m/S 761 mmHg 78%
23:00 +21°C° 0 mm 2 m/S 761 mmHg 77%

21 Juni, Montag

Zeit Temperatur Niederschläge Wind Luftdruck Luftfeuchtigkeit
00:00 +20°C° 0 mm 2 m/S 761 mmHg 76%
01:00 +19°C° 0 mm 2 m/S 761 mmHg 74%
02:00 +19°C° 0 mm 2 m/S 761 mmHg 73%
03:00 +18°C° 0 mm 2 m/S 761 mmHg 71%
04:00 +19°C° 0.2 mm 2 m/S 761 mmHg 72%
05:00 +20°C° 0.2 mm 2 m/S 761 mmHg 73%
06:00 +21°C° 0.2 mm 2 m/S 762 mmHg 75%
07:00 +23°C° 0 mm 2 m/S 761 mmHg 73%
08:00 +25°C° 0 mm 2 m/S 761 mmHg 72%
09:00 +26°C° 0 mm 3 m/S 761 mmHg 71%
10:00 +28°C° 0.3 mm 3 m/S 761 mmHg 65%
11:00 +29°C° 0.3 mm 3 m/S 760 mmHg 60%
12:00 +30°C° 0.3 mm 4 m/S 760 mmHg 55%
13:00 +30°C° 0.1 mm 4 m/S 760 mmHg 54%
14:00 +30°C° 0.1 mm 5 m/S 760 mmHg 54%
15:00 +32°C° 0.1 mm 5 m/S 759 mmHg 53%
16:00 +30°C° 0 mm 5 m/S 759 mmHg 57%
17:00 +29°C° 0 mm 5 m/S 759 mmHg 61%
18:00 +28°C° 0 mm 5 m/S 758 mmHg 64%
19:00 +26°C° 0 mm 4 m/S 759 mmHg 70%
20:00 +25°C° 0 mm 3 m/S 759 mmHg 76%
21:00 +22°C° 0 mm 3 m/S 759 mmHg 82%
22:00 +22°C° 0 mm 3 m/S 759 mmHg 84%
23:00 +21°C° 0 mm 3 m/S 759 mmHg 85%

22 Juni, Dienstag

Zeit Temperatur Niederschläge Wind Luftdruck Luftfeuchtigkeit
00:00 +21°C° 0 mm 3 m/S 759 mmHg 87%
01:00 +21°C° 0 mm 3 m/S 759 mmHg 85%
02:00 +20°C° 0 mm 3 m/S 759 mmHg 84%
03:00 +20°C° 0 mm 3 m/S 759 mmHg 82%
04:00 +21°C° 0 mm 3 m/S 759 mmHg 79%
05:00 +22°C° 0 mm 3 m/S 759 mmHg 76%
06:00 +24°C° 0 mm 3 m/S 759 mmHg 73%
07:00 +25°C° 0 mm 4 m/S 759 mmHg 68%
08:00 +27°C° 0 mm 4 m/S 759 mmHg 64%
09:00 +28°C° 0 mm 4 m/S 759 mmHg 59%
10:00 +30°C° 0 mm 4 m/S 759 mmHg 55%
11:00 +32°C° 0 mm 4 m/S 759 mmHg 51%
12:00 +33°C° 0 mm 4 m/S 759 mmHg 48%
13:00 +33°C° 0 mm 4 m/S 759 mmHg 47%
14:00 +34°C° 0 mm 4 m/S 759 mmHg 46%
15:00 +34°C° 0 mm 4 m/S 759 mmHg 45%
16:00 +33°C° 0 mm 3 m/S 759 mmHg 50%
17:00 +31°C° 0 mm 3 m/S 759 mmHg 56%
18:00 +30°C° 0 mm 2 m/S 759 mmHg 61%
19:00 +28°C° 0 mm 2 m/S 759 mmHg 66%
20:00 +27°C° 0 mm 1 m/S 759 mmHg 70%
21:00 +25°C° 0 mm 1 m/S 759 mmHg 75%
22:00 +24°C° 0 mm 1 m/S 760 mmHg 76%
23:00 +22°C° 0 mm 0 m/S 760 mmHg 77%

23 Juni, Mittwoch

Zeit Temperatur Niederschläge Wind Luftdruck Luftfeuchtigkeit
00:00 +21°C° 0 mm 0 m/S 760 mmHg 78%
01:00 +23°C° 0 mm 1 m/S 760 mmHg 80%
02:00 +22°C° 0 mm 1 m/S 760 mmHg 82%
03:00 +22°C° 0 mm 1 m/S 761 mmHg 84%
04:00 +23°C° 0 mm 1 m/S 761 mmHg 82%
05:00 +23°C° 0 mm 1 m/S 761 mmHg 80%
06:00 +24°C° 0 mm 1 m/S 761 mmHg 78%
07:00 +25°C° 0 mm 2 m/S 762 mmHg 74%
08:00 +26°C° 0 mm 2 m/S 762 mmHg 70%
09:00 +27°C° 0 mm 3 m/S 762 mmHg 67%
10:00 +28°C° 0 mm 3 m/S 762 mmHg 64%
11:00 +29°C° 0 mm 3 m/S 762 mmHg 61%
12:00 +29°C° 0 mm 3 m/S 762 mmHg 58%
13:00 +29°C° 0 mm 3 m/S 762 mmHg 57%
14:00 +30°C° 0 mm 2 m/S 762 mmHg 56%
15:00 +30°C° 0 mm 2 m/S 762 mmHg 55%
16:00 +29°C° 0 mm 2 m/S 762 mmHg 59%
17:00 +28°C° 0 mm 2 m/S 762 mmHg 64%
18:00 +28°C° 0 mm 2 m/S 762 mmHg 69%
19:00 +26°C° 0 mm 2 m/S 762 mmHg 71%
20:00 +25°C° 0 mm 2 m/S 762 mmHg 74%
21:00 +23°C° 0 mm 2 m/S 762 mmHg 76%
22:00 +23°C° 0 mm 2 m/S 762 mmHg 77%
23:00 +21°C° 0 mm 2 m/S 763 mmHg 77%
Mehr zeigen

Wir brauchen deine Erlaubnis

Meteoprog und unser Service Anbieter werden persönliche Daten aufbewahren, so wie Cookies, Geräte Bezeichnung oder ähnliche Technologien von deinem Gerät und Prozess, so wie Persönliche Daten Inhalte und Werbungen, genauso wie social Media und den Verkehr zu analysieren.

  • Aufbewahrung und/oder Zugang zu deiner Geräte Informationen.

    Cookies, Geräte Bezeichnung oder andere Informationen, können aufbewahrt oder Zugang zu deinem Gerät erhalten, für den Grund, der oben angegeben wird.

  • Personalisierte Werbung und Inhalte, Messungen, Einblick in das Publikum und Produkt Entwicklung.

    Werbungen und Inhalte können personalisiert werden, basierend auf ein Profil. Mehr Daten können besser personalisierte Werbungen und Inhalte hinzufügen. Werbung und Inhalte können gezeigt und gemessen werden. Einblicke über das Publikum, welche die Werbung gesehen haben und den Inhalt, können abgeleitet werden. So wie Daten können genutzt werden, um es zu verbessern oder die Benutzer Erfahrung zu verbessern das System und die Software.

Wenn du “Ich stimme zu” klickst, erlaubst du uns, die Cookies zu benutzen die Geräte Bezeichnung, den Web oder ähnliche Technologien zu benutzen. Deine Settings, können in deinem Gerät bei deinem Browser geändert werden.

Für den bestimmten Zweck, berechtigten Interessen beruhen darauf, mehr als auf den Inhalt. Du kannst mehr darüber in unseren Privaten und Cookie Politik lesen.